GLO1104 SBSP-SBCT

Flight info

Callsign GLO1104
Flight time N/A
Altitude 26000
Route SOVSI UZ85 RAXIT
Aircraft B738/M-SDE2E3FGHIRWXY/LB1

Departure

Time 2026-05-05 12:41
Airport Congonhas–Deputado Freitas Nobre Airport (SBSP)

Arrival

Time N/A
Airport Curitiba-Afonso Pena International Airport (SBCT)
Time Latitude Longitude Altitude Speed Heading
2026-05-05 12:12 -23.62420 -46.66025 2599 ft 0 kts 237°
2026-05-05 12:34 -23.62419 -46.66025 2599 ft 1 kts 237°
2026-05-05 12:34 -23.62408 -46.66005 2599 ft 3 kts 246°
2026-05-05 12:34 -23.62404 -46.65987 2599 ft 3 kts 304°
2026-05-05 12:34 -23.62418 -46.65975 2599 ft 3 kts 327°
2026-05-05 12:35 -23.62425 -46.65970 2599 ft 0 kts 327°
2026-05-05 12:37 -23.62423 -46.65971 2599 ft 1 kts 327°
2026-05-05 12:37 -23.62398 -46.65981 2599 ft 7 kts 348°
2026-05-05 12:38 -23.62339 -46.65995 2599 ft 10 kts 348°
2026-05-05 12:38 -23.62267 -46.66030 2599 ft 13 kts 330°
2026-05-05 12:38 -23.62238 -46.66046 2599 ft 4 kts 334°
2026-05-05 12:38 -23.62205 -46.66065 2592 ft 7 kts 330°
2026-05-05 12:39 -23.62162 -46.66096 2598 ft 6 kts 327°
2026-05-05 12:39 -23.62116 -46.66126 2591 ft 9 kts 332°
2026-05-05 12:39 -23.62048 -46.66128 2594 ft 11 kts 28°
2026-05-05 12:39 -23.62026 -46.66098 2595 ft 2 kts 91°
2026-05-05 12:40 -23.62037 -46.66086 2595 ft 0 kts 142°
2026-05-05 12:40 -23.62043 -46.66080 2590 ft 5 kts 141°
2026-05-05 12:40 -23.62284 -46.65912 2599 ft 82 kts 147°
2026-05-05 12:41 -23.62988 -46.65423 2610 ft 154 kts 146°
2026-05-05 12:41 -23.63966 -46.64715 3162 ft 176 kts 146°
2026-05-05 12:41 -23.65031 -46.64005 4028 ft 185 kts 158°
2026-05-05 12:41 -23.66316 -46.63930 4762 ft 196 kts 192°
2026-05-05 12:42 -23.67789 -46.64161 5091 ft 230 kts 188°
2026-05-05 12:42 -23.69476 -46.64356 5432 ft 254 kts 187°
2026-05-05 12:42 -23.71329 -46.64546 5861 ft 276 kts 186°
2026-05-05 12:42 -23.73229 -46.64730 6868 ft 275 kts 186°
2026-05-05 12:43 -23.75096 -46.65116 7854 ft 276 kts 205°
2026-05-05 12:43 -23.76587 -46.66406 8855 ft 275 kts 232°
2026-05-05 12:43 -23.77548 -46.68244 9755 ft 281 kts 243°
2026-05-05 12:43 -23.78392 -46.70197 10603 ft 288 kts 244°
2026-05-05 12:44 -23.79257 -46.72267 10917 ft 314 kts 245°
2026-05-05 12:44 -23.80193 -46.74523 11301 ft 334 kts 245°
2026-05-05 12:44 -23.81169 -46.76875 11965 ft 342 kts 244°
2026-05-05 12:44 -23.82157 -46.79249 12848 ft 345 kts 244°
2026-05-05 12:45 -23.83160 -46.81652 13600 ft 351 kts 244°
2026-05-05 12:45 -23.84187 -46.84103 14325 ft 357 kts 244°
2026-05-05 12:45 -23.85211 -46.86547 15091 ft 358 kts 244°
2026-05-05 12:45 -23.86254 -46.89032 15823 ft 361 kts 244°
2026-05-05 12:46 -23.87308 -46.91540 16559 ft 365 kts 244°
2026-05-05 12:46 -23.88370 -46.94070 17280 ft 368 kts 244°
2026-05-05 12:46 -23.89440 -46.96621 17999 ft 371 kts 244°
2026-05-05 12:46 -23.90519 -46.99194 18684 ft 374 kts 244°
2026-05-05 12:47 -23.91607 -47.01788 19291 ft 376 kts 244°
2026-05-05 12:47 -23.92702 -47.04401 19897 ft 379 kts 243°
2026-05-05 12:47 -23.93804 -47.07033 20498 ft 382 kts 243°
2026-05-05 12:47 -23.94911 -47.09678 21166 ft 383 kts 243°
2026-05-05 12:48 -23.96011 -47.12311 21990 ft 379 kts 243°
2026-05-05 12:48 -23.97103 -47.14924 22829 ft 376 kts 243°
2026-05-05 12:48 -23.98187 -47.17521 23622 ft 375 kts 243°
2026-05-05 12:48 -23.99266 -47.20106 24309 ft 373 kts 243°
2026-05-05 12:49 -24.00335 -47.22668 25074 ft 368 kts 243°
2026-05-05 12:49 -24.01394 -47.25206 25778 ft 365 kts 243°
2026-05-05 12:49 -24.02441 -47.27720 26112 ft 361 kts 244°
2026-05-05 12:49 -24.03488 -47.30232 26212 ft 365 kts 243°
2026-05-05 12:50 -24.04541 -47.32758 26217 ft 363 kts 244°
2026-05-05 12:50 -24.05572 -47.35235 26225 ft 362 kts 243°
2026-05-05 12:50 -24.06616 -47.37747 26225 ft 362 kts 244°
2026-05-05 12:50 -24.07657 -47.40250 26227 ft 361 kts 244°
2026-05-05 12:51 -24.08699 -47.42758 26222 ft 361 kts 244°
2026-05-05 12:51 -24.09842 -47.45194 26213 ft 360 kts 235°
2026-05-05 12:51 -24.11399 -47.47329 26226 ft 359 kts 226°
2026-05-05 12:51 -24.13252 -47.49152 26211 ft 359 kts 215°
2026-05-05 12:52 -24.15337 -47.50652 26224 ft 359 kts 212°
2026-05-05 12:52 -24.17466 -47.52108 26215 ft 359 kts 212°
2026-05-05 12:52 -24.19597 -47.53555 26226 ft 360 kts 212°
2026-05-05 12:52 -24.21721 -47.55005 26223 ft 360 kts 212°
2026-05-05 12:53 -24.23848 -47.56468 26220 ft 361 kts 212°
2026-05-05 12:53 -24.25972 -47.57937 26212 ft 361 kts 212°
2026-05-05 12:53 -24.28068 -47.59392 26205 ft 361 kts 212°
2026-05-05 12:53 -24.30184 -47.60864 26209 ft 361 kts 212°
2026-05-05 12:54 -24.34422 -47.63817 26209 ft 360 kts 213°
2026-05-05 12:54 -24.36533 -47.65289 26208 ft 360 kts 212°
2026-05-05 12:54 -24.38647 -47.66763 26208 ft 359 kts 213°
2026-05-05 12:55 -24.40759 -47.68237 26206 ft 359 kts 213°
2026-05-05 12:55 -24.42824 -47.69772 26204 ft 359 kts 218°
2026-05-05 12:55 -24.44716 -47.71557 26214 ft 358 kts 222°
2026-05-05 12:55 -24.46530 -47.73437 26204 ft 358 kts 223°
2026-05-05 12:56 -24.48301 -47.75315 26202 ft 358 kts 224°
2026-05-05 12:56 -24.50100 -47.77216 26209 ft 358 kts 223°
2026-05-05 12:56 -24.51903 -47.79102 26205 ft 358 kts 223°
2026-05-05 12:56 -24.53715 -47.80981 26213 ft 358 kts 223°
2026-05-05 12:57 -24.55532 -47.82852 26211 ft 358 kts 223°
2026-05-05 12:57 -24.57354 -47.84721 26208 ft 358 kts 223°
2026-05-05 12:57 -24.59180 -47.86591 26206 ft 359 kts 223°
2026-05-05 12:57 -24.61004 -47.88455 26206 ft 359 kts 223°
2026-05-05 12:58 -24.62832 -47.90324 26207 ft 359 kts 223°
2026-05-05 12:58 -24.64661 -47.92195 26204 ft 359 kts 223°